Year,Month,Day,Hour,Minute,Value (Times are PST for temperature in C)
2011,05,24,00,00,4.90
2011,05,24,00,01,4.90
2011,05,24,00,02,4.90
2011,05,24,00,03,4.90
2011,05,24,00,04,4.90
2011,05,24,00,05,4.90
2011,05,24,00,06,4.90
2011,05,24,00,07,4.90
2011,05,24,00,08,4.90
2011,05,24,00,09,4.90
2011,05,24,00,10,4.90
2011,05,24,00,11,4.80
2011,05,24,00,12,4.80
2011,05,24,00,13,4.80
2011,05,24,00,14,4.80
2011,05,24,00,15,4.80
2011,05,24,00,16,4.80
2011,05,24,00,17,4.80
2011,05,24,00,18,4.80
2011,05,24,00,19,4.80
2011,05,24,00,20,4.80
2011,05,24,00,21,4.80
2011,05,24,00,22,4.80
2011,05,24,00,23,4.80
2011,05,24,00,24,4.80
2011,05,24,00,25,4.80
2011,05,24,00,26,4.80
2011,05,24,00,27,4.80
2011,05,24,00,28,4.70
2011,05,24,00,29,4.70
2011,05,24,00,30,4.70
2011,05,24,00,31,4.70
2011,05,24,00,32,4.70
2011,05,24,00,33,4.70
2011,05,24,00,34,4.70
2011,05,24,00,35,4.70
2011,05,24,00,36,4.70
2011,05,24,00,37,4.70
2011,05,24,00,38,4.70
2011,05,24,00,39,4.70
2011,05,24,00,40,4.70
2011,05,24,00,41,4.70
2011,05,24,00,42,4.70
2011,05,24,00,43,4.70
2011,05,24,00,44,4.70
2011,05,24,00,45,4.60
2011,05,24,00,46,4.60
2011,05,24,00,47,4.60
2011,05,24,00,48,4.60
2011,05,24,00,49,4.60
2011,05,24,00,50,4.60
2011,05,24,00,51,4.60
2011,05,24,00,52,4.60
2011,05,24,00,53,4.60
2011,05,24,00,54,4.60
2011,05,24,00,55,4.60
2011,05,24,00,56,4.60
2011,05,24,00,57,4.60
2011,05,24,00,58,4.50
2011,05,24,00,59,4.50
2011,05,24,01,00,4.50
2011,05,24,01,01,4.50
2011,05,24,01,02,4.50
2011,05,24,01,03,4.50
2011,05,24,01,04,4.50
2011,05,24,01,05,4.50
2011,05,24,01,06,4.50
2011,05,24,01,07,4.50
2011,05,24,01,08,4.50
2011,05,24,01,09,4.60
2011,05,24,01,10,4.50
2011,05,24,01,11,4.50
2011,05,24,01,12,4.50
2011,05,24,01,13,4.50
2011,05,24,01,14,4.50
2011,05,24,01,15,4.50
2011,05,24,01,16,4.50
2011,05,24,01,17,4.50
2011,05,24,01,18,4.50
2011,05,24,01,19,4.50
2011,05,24,01,20,4.50
2011,05,24,01,21,4.50
2011,05,24,01,22,4.50
2011,05,24,01,23,4.50
2011,05,24,01,24,4.50
2011,05,24,01,25,4.50
2011,05,24,01,26,4.40
2011,05,24,01,27,4.40
2011,05,24,01,28,4.40
2011,05,24,01,29,4.40
2011,05,24,01,30,4.40
2011,05,24,01,31,4.40
2011,05,24,01,32,4.40
2011,05,24,01,33,4.40
2011,05,24,01,34,4.40
2011,05,24,01,35,4.50
2011,05,24,01,36,4.50
2011,05,24,01,37,4.50
2011,05,24,01,38,4.50
2011,05,24,01,39,4.50
2011,05,24,01,40,4.50
2011,05,24,01,41,4.50
2011,05,24,01,42,4.50
2011,05,24,01,43,4.50
2011,05,24,01,44,4.50
2011,05,24,01,45,4.50
2011,05,24,01,46,4.50
2011,05,24,01,47,4.50
2011,05,24,01,48,4.50
2011,05,24,01,49,4.50
2011,05,24,01,50,4.50
2011,05,24,01,51,4.50
2011,05,24,01,52,4.50
2011,05,24,01,53,4.50
2011,05,24,01,54,4.50
2011,05,24,01,55,4.50
2011,05,24,01,56,4.50
2011,05,24,01,57,4.50
2011,05,24,01,58,4.50
2011,05,24,01,59,4.50
2011,05,24,02,00,4.50
2011,05,24,02,01,4.50
2011,05,24,02,02,4.50
2011,05,24,02,03,4.40
2011,05,24,02,04,4.40
2011,05,24,02,05,4.40
2011,05,24,02,06,4.40
2011,05,24,02,07,4.40
2011,05,24,02,08,4.40
2011,05,24,02,09,4.30
2011,05,24,02,10,4.30
2011,05,24,02,11,4.30
2011,05,24,02,12,4.30
2011,05,24,02,13,4.30
2011,05,24,02,14,4.30
2011,05,24,02,15,4.30
2011,05,24,02,16,4.30
2011,05,24,02,17,4.30
2011,05,24,02,18,4.30
2011,05,24,02,19,4.30
2011,05,24,02,20,4.30
2011,05,24,02,21,4.30
2011,05,24,02,22,4.30
2011,05,24,02,23,4.30
2011,05,24,02,24,4.30
2011,05,24,02,25,4.20
2011,05,24,02,26,4.20
2011,05,24,02,27,4.20
2011,05,24,02,28,4.20
2011,05,24,02,29,4.20
2011,05,24,02,30,4.20
2011,05,24,02,31,4.20
2011,05,24,02,32,4.20
2011,05,24,02,33,4.20
2011,05,24,02,34,4.20
2011,05,24,02,35,4.20
2011,05,24,02,36,4.10
2011,05,24,02,37,4.10
2011,05,24,02,38,4.10
2011,05,24,02,39,4.10
2011,05,24,02,40,4.10
2011,05,24,02,41,4.10
2011,05,24,02,42,4.10
2011,05,24,02,43,4.00
2011,05,24,02,44,4.00
2011,05,24,02,45,4.00
2011,05,24,02,46,4.00
2011,05,24,02,47,3.90
2011,05,24,02,48,3.90
2011,05,24,02,49,3.90
2011,05,24,02,50,3.90
2011,05,24,02,51,3.90
2011,05,24,02,52,3.90
2011,05,24,02,53,3.80
2011,05,24,02,54,3.80
2011,05,24,02,55,3.80
2011,05,24,02,56,3.80
2011,05,24,02,57,3.80
2011,05,24,02,58,3.80
2011,05,24,02,59,3.80
2011,05,24,03,00,3.70
2011,05,24,03,01,3.70
2011,05,24,03,02,3.70
2011,05,24,03,03,3.70
2011,05,24,03,04,3.70
2011,05,24,03,05,3.70
2011,05,24,03,06,3.70
2011,05,24,03,07,3.60
2011,05,24,03,08,3.60
2011,05,24,03,09,3.60
2011,05,24,03,10,3.60
2011,05,24,03,11,3.60
2011,05,24,03,12,3.60
2011,05,24,03,13,3.60
2011,05,24,03,14,3.60
2011,05,24,03,15,3.60
2011,05,24,03,16,3.50
2011,05,24,03,17,3.50
2011,05,24,03,18,3.50
2011,05,24,03,19,3.50
2011,05,24,03,20,3.50
2011,05,24,03,21,3.50
2011,05,24,03,22,3.50
2011,05,24,03,23,3.50
2011,05,24,03,24,3.50
2011,05,24,03,25,3.50
2011,05,24,03,26,3.40
2011,05,24,03,27,3.40
2011,05,24,03,28,3.40
2011,05,24,03,29,3.40
2011,05,24,03,30,3.40
2011,05,24,03,31,3.40
2011,05,24,03,32,3.40
2011,05,24,03,33,3.40
2011,05,24,03,34,3.40
2011,05,24,03,35,3.40
2011,05,24,03,36,3.40
2011,05,24,03,37,3.40
2011,05,24,03,38,3.40
2011,05,24,03,39,3.30
2011,05,24,03,40,3.30
2011,05,24,03,41,3.30
2011,05,24,03,42,3.30
2011,05,24,03,43,3.30
2011,05,24,03,44,3.30
2011,05,24,03,45,3.30
2011,05,24,03,46,3.30
2011,05,24,03,47,3.30
2011,05,24,03,48,3.30
2011,05,24,03,49,3.30
2011,05,24,03,50,3.30
2011,05,24,03,51,3.30
2011,05,24,03,52,3.30
2011,05,24,03,53,3.30
2011,05,24,03,54,3.30
2011,05,24,03,55,3.30
2011,05,24,03,56,3.30
2011,05,24,03,57,3.30
2011,05,24,03,58,3.30
2011,05,24,03,59,3.30
2011,05,24,04,00,3.20
2011,05,24,04,01,3.20
2011,05,24,04,02,3.20
2011,05,24,04,03,3.20
2011,05,24,04,04,3.20
2011,05,24,04,05,3.20
2011,05,24,04,06,3.20
2011,05,24,04,07,3.20
2011,05,24,04,08,3.20
2011,05,24,04,09,3.20
2011,05,24,04,10,3.20
2011,05,24,04,11,3.10
2011,05,24,04,12,3.10
2011,05,24,04,13,3.10
2011,05,24,04,14,3.10
2011,05,24,04,15,3.10
2011,05,24,04,16,3.10
2011,05,24,04,17,3.10
2011,05,24,04,18,3.10
2011,05,24,04,19,3.10
2011,05,24,04,20,3.00
2011,05,24,04,21,3.00
2011,05,24,04,22,3.00
2011,05,24,04,23,3.00
2011,05,24,04,24,3.00
2011,05,24,04,25,3.00
2011,05,24,04,26,3.00
2011,05,24,04,27,3.00
2011,05,24,04,28,3.00
2011,05,24,04,29,3.00
2011,05,24,04,30,3.00
2011,05,24,04,31,3.00
2011,05,24,04,32,3.00
2011,05,24,04,33,3.00
2011,05,24,04,34,3.00
2011,05,24,04,35,3.00
2011,05,24,04,36,3.10
2011,05,24,04,37,3.10
2011,05,24,04,38,3.10
2011,05,24,04,39,3.10
2011,05,24,04,40,3.10
2011,05,24,04,41,3.10
2011,05,24,04,42,3.10
2011,05,24,04,43,3.10
2011,05,24,04,44,3.10
2011,05,24,04,45,3.10
2011,05,24,04,46,3.10
2011,05,24,04,47,3.10
2011,05,24,04,48,3.10
2011,05,24,04,49,3.00
2011,05,24,04,50,3.00
2011,05,24,04,51,3.00
2011,05,24,04,52,3.10
2011,05,24,04,53,3.10
2011,05,24,04,54,3.00
2011,05,24,04,55,3.00
2011,05,24,04,56,3.00
2011,05,24,04,57,3.00
2011,05,24,04,58,3.00
2011,05,24,04,59,2.90
2011,05,24,05,00,2.90
2011,05,24,05,01,2.90
2011,05,24,05,02,2.90
2011,05,24,05,03,2.80
2011,05,24,05,04,2.80
2011,05,24,05,05,2.80
2011,05,24,05,06,2.80
2011,05,24,05,07,2.80
2011,05,24,05,08,2.80
2011,05,24,05,09,2.80
2011,05,24,05,10,2.80
2011,05,24,05,11,2.80
2011,05,24,05,12,2.80
2011,05,24,05,13,2.80
2011,05,24,05,14,2.80
2011,05,24,05,15,2.80
2011,05,24,05,16,2.80
2011,05,24,05,17,2.80
2011,05,24,05,18,2.80
2011,05,24,05,19,2.80
2011,05,24,05,20,2.80
2011,05,24,05,21,2.80
2011,05,24,05,22,2.80
2011,05,24,05,23,2.80
2011,05,24,05,24,2.80
2011,05,24,05,25,2.80
2011,05,24,05,26,2.80
2011,05,24,05,27,2.80
2011,05,24,05,28,2.80
2011,05,24,05,29,2.80
2011,05,24,05,30,2.80
2011,05,24,05,31,2.80
2011,05,24,05,32,2.80
2011,05,24,05,33,2.80
2011,05,24,05,34,2.80
2011,05,24,05,35,2.70
2011,05,24,05,36,2.70
2011,05,24,05,37,2.70
2011,05,24,05,38,2.70
2011,05,24,05,39,2.70
2011,05,24,05,40,2.70
2011,05,24,05,41,2.70
2011,05,24,05,42,2.70
2011,05,24,05,43,2.70
2011,05,24,05,44,2.70
2011,05,24,05,45,2.70
2011,05,24,05,46,2.70
2011,05,24,05,47,2.70
2011,05,24,05,48,2.70
2011,05,24,05,49,2.70
2011,05,24,05,50,2.70
2011,05,24,05,51,2.70
2011,05,24,05,52,2.70
2011,05,24,05,53,2.70
2011,05,24,05,54,2.70
2011,05,24,05,55,2.70
2011,05,24,05,56,2.70
2011,05,24,05,57,2.70
2011,05,24,05,58,2.70
2011,05,24,05,59,2.70
2011,05,24,06,00,2.80
2011,05,24,06,01,2.80
2011,05,24,06,02,2.80
2011,05,24,06,03,2.80
2011,05,24,06,04,2.80
2011,05,24,06,05,2.80
2011,05,24,06,06,2.80
2011,05,24,06,07,2.80
2011,05,24,06,08,2.80
2011,05,24,06,09,2.80
2011,05,24,06,10,2.80
2011,05,24,06,11,2.80
2011,05,24,06,12,2.80
2011,05,24,06,13,2.80
2011,05,24,06,14,2.80
2011,05,24,06,15,2.80
2011,05,24,06,16,2.80
2011,05,24,06,17,2.90
2011,05,24,06,18,2.90
2011,05,24,06,19,2.90
2011,05,24,06,20,2.90
2011,05,24,06,21,2.90
2011,05,24,06,22,2.90
2011,05,24,06,23,2.90
2011,05,24,06,24,3.00
2011,05,24,06,25,3.00
2011,05,24,06,26,3.10
2011,05,24,06,27,3.10
2011,05,24,06,28,3.10
2011,05,24,06,29,3.10
2011,05,24,06,30,3.20
2011,05,24,06,31,3.20
2011,05,24,06,32,3.20
2011,05,24,06,33,3.20
2011,05,24,06,34,3.30
2011,05,24,06,35,3.30
2011,05,24,06,36,3.30
2011,05,24,06,37,3.30
2011,05,24,06,38,3.30
2011,05,24,06,39,3.30
2011,05,24,06,40,3.40
2011,05,24,06,41,3.40
2011,05,24,06,42,3.40
2011,05,24,06,43,3.50
2011,05,24,06,44,3.50
2011,05,24,06,45,3.50
2011,05,24,06,46,3.50
2011,05,24,06,47,3.60
2011,05,24,06,48,3.60
2011,05,24,06,49,3.60
2011,05,24,06,50,3.60
2011,05,24,06,51,3.70
2011,05,24,06,52,3.70
2011,05,24,06,53,3.70
2011,05,24,06,54,3.70
2011,05,24,06,55,3.70
2011,05,24,06,56,3.80
2011,05,24,06,57,3.80
2011,05,24,06,58,3.80
2011,05,24,06,59,3.90
2011,05,24,07,00,3.90
2011,05,24,07,01,4.00
2011,05,24,07,02,4.10
2011,05,24,07,03,4.20
2011,05,24,07,04,4.20
2011,05,24,07,05,4.30
2011,05,24,07,06,4.30
2011,05,24,07,07,4.40
2011,05,24,07,08,4.40
2011,05,24,07,09,4.50
2011,05,24,07,10,4.60
2011,05,24,07,11,4.70
2011,05,24,07,12,4.70
2011,05,24,07,13,4.80
2011,05,24,07,14,4.80
2011,05,24,07,15,4.90
2011,05,24,07,16,5.00
2011,05,24,07,17,5.10
2011,05,24,07,18,5.20
2011,05,24,07,19,5.30
2011,05,24,07,20,5.40
2011,05,24,07,21,5.50
2011,05,24,07,22,5.60
2011,05,24,07,23,5.70
2011,05,24,07,24,5.80
2011,05,24,07,25,5.90
2011,05,24,07,26,6.10
2011,05,24,07,27,6.20
2011,05,24,07,28,6.30
2011,05,24,07,29,6.30
2011,05,24,07,30,6.40
2011,05,24,07,31,6.50
2011,05,24,07,32,6.60
2011,05,24,07,33,6.70
2011,05,24,07,34,6.70
2011,05,24,07,35,6.80
2011,05,24,07,36,6.90
2011,05,24,07,37,6.90
2011,05,24,07,38,7.00
2011,05,24,07,39,7.10
2011,05,24,07,40,7.20
2011,05,24,07,41,7.20
2011,05,24,07,42,7.30
2011,05,24,07,43,7.40
2011,05,24,07,44,7.50
2011,05,24,07,45,7.70
2011,05,24,07,46,7.80
2011,05,24,07,47,7.90
2011,05,24,07,48,8.00
2011,05,24,07,49,8.10
2011,05,24,07,50,8.20
2011,05,24,07,51,8.20
2011,05,24,07,52,8.30
2011,05,24,07,53,8.30
2011,05,24,07,54,8.40
2011,05,24,07,55,8.40
2011,05,24,07,56,8.40
2011,05,24,07,57,8.50
2011,05,24,07,58,8.50
2011,05,24,07,59,8.60
2011,05,24,08,00,8.60
2011,05,24,08,01,8.70
2011,05,24,08,02,8.80
2011,05,24,08,03,8.80
2011,05,24,08,04,9.00
2011,05,24,08,05,9.10
2011,05,24,08,06,9.20
2011,05,24,08,07,9.30
2011,05,24,08,08,9.50
2011,05,24,08,09,9.60
2011,05,24,08,10,9.70
2011,05,24,08,11,9.80
2011,05,24,08,12,9.90
2011,05,24,08,13,10.00
2011,05,24,08,14,10.10
2011,05,24,08,15,10.20
2011,05,24,08,16,10.30
2011,05,24,08,17,10.40
2011,05,24,08,18,10.40
2011,05,24,08,19,10.50
2011,05,24,08,20,10.60
2011,05,24,08,21,10.70
2011,05,24,08,22,10.80
2011,05,24,08,23,10.90
2011,05,24,08,24,11.00
2011,05,24,08,25,11.10
2011,05,24,08,26,11.20
2011,05,24,08,27,11.30
2011,05,24,08,28,11.30
2011,05,24,08,29,11.40
2011,05,24,08,30,11.50
2011,05,24,08,31,11.50
2011,05,24,08,32,11.50
2011,05,24,08,33,11.50
2011,05,24,08,34,11.40
2011,05,24,08,35,11.40
2011,05,24,08,36,11.30
2011,05,24,08,37,11.30
2011,05,24,08,38,11.30
2011,05,24,08,39,11.30
2011,05,24,08,40,11.30
2011,05,24,08,41,11.20
2011,05,24,08,42,11.20
2011,05,24,08,43,11.20
2011,05,24,08,44,11.20
2011,05,24,08,45,11.20
2011,05,24,08,46,11.10
2011,05,24,08,47,11.10
2011,05,24,08,48,11.10
2011,05,24,08,49,11.10
2011,05,24,08,50,11.20
2011,05,24,08,51,11.20
2011,05,24,08,52,11.20
2011,05,24,08,53,11.30
2011,05,24,08,54,11.40
2011,05,24,08,55,11.50
2011,05,24,08,56,11.70
2011,05,24,08,57,11.80
2011,05,24,08,58,11.90
2011,05,24,08,59,12.00
2011,05,24,09,00,12.10
2011,05,24,09,01,12.20
2011,05,24,09,02,12.20
2011,05,24,09,03,12.20
2011,05,24,09,04,12.20
2011,05,24,09,05,12.20
2011,05,24,09,06,12.20
2011,05,24,09,07,12.20
2011,05,24,09,08,12.20
2011,05,24,09,09,12.20
2011,05,24,09,10,12.30
2011,05,24,09,11,12.30
2011,05,24,09,12,12.30
2011,05,24,09,13,12.40
2011,05,24,09,14,12.40
2011,05,24,09,15,12.50
2011,05,24,09,16,12.60
2011,05,24,09,17,12.60
2011,05,24,09,18,12.60
2011,05,24,09,19,12.70
2011,05,24,09,20,12.70
2011,05,24,09,21,12.70
2011,05,24,09,22,12.70
2011,05,24,09,23,12.70
2011,05,24,09,24,12.70
2011,05,24,09,25,12.70
2011,05,24,09,26,12.80
2011,05,24,09,27,12.80
2011,05,24,09,28,12.80
2011,05,24,09,29,12.90
2011,05,24,09,30,13.00
2011,05,24,09,31,13.10
2011,05,24,09,32,13.20
2011,05,24,09,33,13.30
2011,05,24,09,34,13.40
2011,05,24,09,35,13.50
2011,05,24,09,36,13.60
2011,05,24,09,37,13.70
2011,05,24,09,38,13.50
2011,05,24,09,39,13.50
2011,05,24,09,40,13.40
2011,05,24,09,41,13.40
2011,05,24,09,42,13.40
2011,05,24,09,43,13.50
2011,05,24,09,44,13.50
2011,05,24,09,45,13.60
2011,05,24,09,46,13.70
2011,05,24,09,47,13.70
2011,05,24,09,48,13.70
2011,05,24,09,49,13.80
2011,05,24,09,50,13.90
2011,05,24,09,51,13.90
2011,05,24,09,52,14.00
2011,05,24,09,53,14.10
2011,05,24,09,54,14.10
2011,05,24,09,55,14.10
2011,05,24,09,56,14.20
2011,05,24,09,57,14.20
2011,05,24,09,58,14.30
2011,05,24,09,59,14.30
2011,05,24,10,00,14.40
2011,05,24,10,01,14.30
2011,05,24,10,02,14.30
2011,05,24,10,03,14.30
2011,05,24,10,04,14.30
2011,05,24,10,05,14.30
2011,05,24,10,06,14.30
2011,05,24,10,07,14.40
2011,05,24,10,08,14.40
2011,05,24,10,09,14.40
2011,05,24,10,10,14.40
2011,05,24,10,11,14.30
2011,05,24,10,12,14.20
2011,05,24,10,13,14.20
2011,05,24,10,14,14.20
2011,05,24,10,15,14.20
2011,05,24,10,16,14.20
2011,05,24,10,17,14.20
2011,05,24,10,18,14.20
2011,05,24,10,19,14.20
2011,05,24,10,20,14.20
2011,05,24,10,21,14.30
2011,05,24,10,22,14.30
2011,05,24,10,23,14.30
2011,05,24,10,24,14.40
2011,05,24,10,25,14.50
2011,05,24,10,26,14.50
2011,05,24,10,27,14.40
2011,05,24,10,28,14.30
2011,05,24,10,29,14.30
2011,05,24,10,30,14.40
2011,05,24,10,31,14.40
2011,05,24,10,32,14.50
2011,05,24,10,33,14.60
2011,05,24,10,34,14.60
2011,05,24,10,35,14.60
2011,05,24,10,36,14.60
2011,05,24,10,37,14.60
2011,05,24,10,38,14.70
2011,05,24,10,39,14.70
2011,05,24,10,40,14.60
2011,05,24,10,41,14.70
2011,05,24,10,42,14.70
2011,05,24,10,43,14.70
2011,05,24,10,44,14.60
2011,05,24,10,45,14.70
2011,05,24,10,46,14.60
2011,05,24,10,47,14.60
2011,05,24,10,48,14.70
2011,05,24,10,49,14.70
2011,05,24,10,50,14.70
2011,05,24,10,51,14.70
2011,05,24,10,52,14.70
2011,05,24,10,53,14.60
2011,05,24,10,54,14.60
2011,05,24,10,55,14.50
2011,05,24,10,56,14.50
2011,05,24,10,57,14.50
2011,05,24,10,58,14.40
2011,05,24,10,59,14.40
2011,05,24,11,00,14.40
2011,05,24,11,01,14.40
2011,05,24,11,02,14.40
2011,05,24,11,03,14.30
2011,05,24,11,04,14.40
2011,05,24,11,05,14.40
2011,05,24,11,06,14.50
2011,05,24,11,07,14.60
2011,05,24,11,08,14.70
2011,05,24,11,09,14.70
2011,05,24,11,10,14.70
2011,05,24,11,11,14.60
2011,05,24,11,12,14.50
2011,05,24,11,13,14.40
2011,05,24,11,14,14.30
2011,05,24,11,15,14.20
2011,05,24,11,16,14.20
2011,05,24,11,17,14.20
2011,05,24,11,18,14.30
2011,05,24,11,19,14.40
2011,05,24,11,20,14.30
2011,05,24,11,21,14.30
2011,05,24,11,22,14.30
2011,05,24,11,23,14.30
2011,05,24,11,24,14.20
2011,05,24,11,25,14.10
2011,05,24,11,26,13.90
2011,05,24,11,27,13.80
2011,05,24,11,28,13.80
2011,05,24,11,29,13.90
2011,05,24,11,30,13.90
2011,05,24,11,31,13.80
2011,05,24,11,32,13.70
2011,05,24,11,33,13.70
2011,05,24,11,34,13.70
2011,05,24,11,35,13.70
2011,05,24,11,36,13.70
2011,05,24,11,37,13.80
2011,05,24,11,38,13.90
2011,05,24,11,39,14.00
2011,05,24,11,40,14.10
2011,05,24,11,41,14.20
2011,05,24,11,42,14.20
2011,05,24,11,43,14.10
2011,05,24,11,44,14.10
2011,05,24,11,45,14.00
2011,05,24,11,46,14.00
2011,05,24,11,47,14.10
2011,05,24,11,48,14.10
2011,05,24,11,49,14.10
2011,05,24,11,50,14.20
2011,05,24,11,51,14.20
2011,05,24,11,52,14.20
2011,05,24,11,53,14.20
2011,05,24,11,54,14.10
2011,05,24,11,55,13.80
2011,05,24,11,56,13.70
2011,05,24,11,57,13.70
2011,05,24,11,58,13.70
2011,05,24,11,59,13.80
2011,05,24,12,00,13.80
2011,05,24,12,01,13.80
2011,05,24,12,02,13.80
2011,05,24,12,03,13.80
2011,05,24,12,04,13.70
2011,05,24,12,05,13.80
2011,05,24,12,06,13.80
2011,05,24,12,07,13.80
2011,05,24,12,08,13.80
2011,05,24,12,09,13.80
2011,05,24,12,10,13.90
2011,05,24,12,11,14.00
2011,05,24,12,12,14.00
2011,05,24,12,13,14.00
2011,05,24,12,14,13.90
2011,05,24,12,15,13.90
2011,05,24,12,16,13.90
2011,05,24,12,17,13.80
2011,05,24,12,18,13.80
2011,05,24,12,19,13.90
2011,05,24,12,20,13.90
2011,05,24,12,21,14.00
2011,05,24,12,22,13.90
2011,05,24,12,23,13.80
2011,05,24,12,24,13.80
2011,05,24,12,25,13.80
2011,05,24,12,26,13.90
2011,05,24,12,27,13.90
2011,05,24,12,28,13.90
2011,05,24,12,29,13.80
2011,05,24,12,30,13.80
2011,05,24,12,31,13.90
2011,05,24,12,32,14.00
2011,05,24,12,33,14.00
2011,05,24,12,34,13.90
2011,05,24,12,35,13.90
2011,05,24,12,36,13.90
2011,05,24,12,37,13.90
2011,05,24,12,38,14.00
2011,05,24,12,39,14.00
2011,05,24,12,40,14.10
2011,05,24,12,41,14.10
2011,05,24,12,42,14.10
2011,05,24,12,43,14.10
2011,05,24,12,44,14.00
2011,05,24,12,45,13.90
2011,05,24,12,46,13.90
2011,05,24,12,47,13.90
2011,05,24,12,48,13.90
2011,05,24,12,49,13.90
2011,05,24,12,50,14.00
2011,05,24,12,51,14.10
2011,05,24,12,52,14.20
2011,05,24,12,53,14.20
2011,05,24,12,54,14.30
2011,05,24,12,55,14.30
2011,05,24,12,56,14.30
2011,05,24,12,57,14.30
2011,05,24,12,58,14.30
2011,05,24,12,59,14.20
2011,05,24,13,00,14.30
2011,05,24,13,01,14.40
2011,05,24,13,02,14.30
2011,05,24,13,03,14.30
2011,05,24,13,04,14.10
2011,05,24,13,05,14.10
2011,05,24,13,06,14.00
2011,05,24,13,07,14.00
2011,05,24,13,08,14.00
2011,05,24,13,09,14.10
2011,05,24,13,10,14.10
2011,05,24,13,11,14.20
2011,05,24,13,12,14.20
2011,05,24,13,13,14.20
2011,05,24,13,14,14.10
2011,05,24,13,15,14.10
2011,05,24,13,16,14.10
2011,05,24,13,17,14.10
2011,05,24,13,18,14.10
2011,05,24,13,19,14.10
2011,05,24,13,20,14.10
2011,05,24,13,21,14.10
2011,05,24,13,22,14.00
2011,05,24,13,23,13.90
2011,05,24,13,24,13.70
2011,05,24,13,25,13.70
2011,05,24,13,26,13.80
2011,05,24,13,27,13.80
2011,05,24,13,28,13.80
2011,05,24,13,29,13.80
2011,05,24,13,30,13.80
2011,05,24,13,31,13.70
2011,05,24,13,32,13.70
2011,05,24,13,33,13.80
2011,05,24,13,34,13.80
2011,05,24,13,35,13.80
2011,05,24,13,36,13.80
2011,05,24,13,37,13.80
2011,05,24,13,38,13.80
2011,05,24,13,39,13.80
2011,05,24,13,40,13.80
2011,05,24,13,41,13.80
2011,05,24,13,42,13.90
2011,05,24,13,43,13.90
2011,05,24,13,44,14.00
2011,05,24,13,45,14.00
2011,05,24,13,46,14.00
2011,05,24,13,47,14.00
2011,05,24,13,48,13.90
2011,05,24,13,49,13.90
2011,05,24,13,50,13.80
2011,05,24,13,51,13.80
2011,05,24,13,52,13.70
2011,05,24,13,53,13.60
2011,05,24,13,54,13.50
2011,05,24,13,55,13.50
2011,05,24,13,56,13.40
2011,05,24,13,57,13.50
2011,05,24,13,58,13.40
2011,05,24,13,59,13.40
2011,05,24,14,00,13.40
2011,05,24,14,01,13.40
2011,05,24,14,02,13.50
2011,05,24,14,03,13.50
2011,05,24,14,04,13.50
2011,05,24,14,05,13.50
2011,05,24,14,06,13.60
2011,05,24,14,07,13.60
2011,05,24,14,08,13.60
2011,05,24,14,09,13.70
2011,05,24,14,10,13.80
2011,05,24,14,11,13.90
2011,05,24,14,12,13.90
2011,05,24,14,13,13.80
2011,05,24,14,14,13.80
2011,05,24,14,15,13.80
2011,05,24,14,16,13.70
2011,05,24,14,17,13.70
2011,05,24,14,18,13.70
2011,05,24,14,19,13.70
2011,05,24,14,20,13.70
2011,05,24,14,21,13.80
2011,05,24,14,22,13.80
2011,05,24,14,23,13.80
2011,05,24,14,24,13.80
2011,05,24,14,25,13.80
2011,05,24,14,26,13.80
2011,05,24,14,27,13.90
2011,05,24,14,28,13.90
2011,05,24,14,29,13.80
2011,05,24,14,30,13.80
2011,05,24,14,31,13.80
2011,05,24,14,32,13.80
2011,05,24,14,33,13.70
2011,05,24,14,34,13.70
2011,05,24,14,35,13.70
2011,05,24,14,36,13.70
2011,05,24,14,37,13.80
2011,05,24,14,38,13.80
2011,05,24,14,39,13.80
2011,05,24,14,40,13.80
2011,05,24,14,41,13.80
2011,05,24,14,42,14.00
2011,05,24,14,43,14.10
2011,05,24,14,44,14.20
2011,05,24,14,45,14.20
2011,05,24,14,46,14.40
2011,05,24,14,47,14.50
2011,05,24,14,48,14.70
2011,05,24,14,49,14.70
2011,05,24,14,50,14.80
2011,05,24,14,51,14.90
2011,05,24,14,52,15.00
2011,05,24,14,53,15.00
2011,05,24,14,54,15.00
2011,05,24,14,55,15.00
2011,05,24,14,56,15.00
2011,05,24,14,57,15.00
2011,05,24,14,58,15.00
2011,05,24,14,59,15.00
2011,05,24,15,00,15.00
2011,05,24,15,01,15.00
2011,05,24,15,02,15.00
2011,05,24,15,03,15.00
2011,05,24,15,04,15.10
2011,05,24,15,05,15.20
2011,05,24,15,06,15.30
2011,05,24,15,07,15.50
2011,05,24,15,08,15.50
2011,05,24,15,09,15.50
2011,05,24,15,10,15.50
2011,05,24,15,11,15.50
2011,05,24,15,12,15.50
2011,05,24,15,13,15.60
2011,05,24,15,14,15.60
2011,05,24,15,15,15.70
2011,05,24,15,16,15.70
2011,05,24,15,17,15.70
2011,05,24,15,18,15.70
2011,05,24,15,19,15.60
2011,05,24,15,20,15.60
2011,05,24,15,21,15.50
2011,05,24,15,22,15.30
2011,05,24,15,23,15.00
2011,05,24,15,24,15.00
2011,05,24,15,25,14.90
2011,05,24,15,26,14.80
2011,05,24,15,27,14.80
2011,05,24,15,28,14.90
2011,05,24,15,29,15.00
2011,05,24,15,30,15.00
2011,05,24,15,31,15.00
2011,05,24,15,32,15.00
2011,05,24,15,33,15.00
2011,05,24,15,34,15.00
2011,05,24,15,35,15.00
2011,05,24,15,36,15.00
2011,05,24,15,37,15.00
2011,05,24,15,38,14.90
2011,05,24,15,39,14.80
2011,05,24,15,40,14.70
2011,05,24,15,41,14.60
2011,05,24,15,42,14.60
2011,05,24,15,43,14.50
2011,05,24,15,44,14.50
2011,05,24,15,45,14.50
2011,05,24,15,46,14.50
2011,05,24,15,47,14.50
2011,05,24,15,48,14.50
2011,05,24,15,49,14.40
2011,05,24,15,50,14.40
2011,05,24,15,51,14.40
2011,05,24,15,52,14.40
2011,05,24,15,53,14.40
2011,05,24,15,54,14.40
2011,05,24,15,55,14.40
2011,05,24,15,56,14.50
2011,05,24,15,57,14.50
2011,05,24,15,58,14.60
2011,05,24,15,59,14.50
2011,05,24,16,00,14.40
2011,05,24,16,01,14.30
2011,05,24,16,02,14.20
2011,05,24,16,03,14.20
2011,05,24,16,04,14.20
2011,05,24,16,05,14.20
2011,05,24,16,06,14.30
2011,05,24,16,07,14.30
2011,05,24,16,08,14.30
2011,05,24,16,09,14.30
2011,05,24,16,10,14.30
2011,05,24,16,11,14.40
2011,05,24,16,12,14.50
2011,05,24,16,13,14.50
2011,05,24,16,14,14.60
2011,05,24,16,15,14.60
2011,05,24,16,16,14.60
2011,05,24,16,17,14.50
2011,05,24,16,18,14.40
2011,05,24,16,19,14.30
2011,05,24,16,20,14.20
2011,05,24,16,21,14.20
2011,05,24,16,22,14.20
2011,05,24,16,23,14.20
2011,05,24,16,24,14.30
2011,05,24,16,25,14.40
2011,05,24,16,26,14.40
2011,05,24,16,27,14.50
2011,05,24,16,28,14.50
2011,05,24,16,29,14.60
2011,05,24,16,30,14.60
2011,05,24,16,31,14.60
2011,05,24,16,32,14.50
2011,05,24,16,33,14.50
2011,05,24,16,34,14.40
2011,05,24,16,35,14.40
2011,05,24,16,36,14.40
2011,05,24,16,37,14.30
2011,05,24,16,38,14.30
2011,05,24,16,39,14.30
2011,05,24,16,40,14.20
2011,05,24,16,41,14.20
2011,05,24,16,42,14.10
2011,05,24,16,43,14.00
2011,05,24,16,44,13.90
2011,05,24,16,45,13.90
2011,05,24,16,46,13.80
2011,05,24,16,47,13.80
2011,05,24,16,48,13.80
2011,05,24,16,49,13.80
2011,05,24,16,50,13.80
2011,05,24,16,51,13.70
2011,05,24,16,52,13.70
2011,05,24,16,53,13.70
2011,05,24,16,54,13.70
2011,05,24,16,55,13.70
2011,05,24,16,56,13.70
2011,05,24,16,57,13.70
2011,05,24,16,58,13.70
2011,05,24,16,59,13.70
2011,05,24,17,00,13.70
2011,05,24,17,01,13.70
2011,05,24,17,02,13.70
2011,05,24,17,03,13.70
2011,05,24,17,04,13.80
2011,05,24,17,05,13.80
2011,05,24,17,06,13.80
2011,05,24,17,07,13.80
2011,05,24,17,08,13.90
2011,05,24,17,09,13.90
2011,05,24,17,10,14.00
2011,05,24,17,11,14.00
2011,05,24,17,12,14.10
2011,05,24,17,13,14.10
2011,05,24,17,14,14.10
2011,05,24,17,15,14.10
2011,05,24,17,16,14.10
2011,05,24,17,17,14.10
2011,05,24,17,18,14.10
2011,05,24,17,19,14.00
2011,05,24,17,20,14.00
2011,05,24,17,21,13.90
2011,05,24,17,22,13.90
2011,05,24,17,23,13.90
2011,05,24,17,24,13.90
2011,05,24,17,25,13.90
2011,05,24,17,26,13.90
2011,05,24,17,27,13.90
2011,05,24,17,28,13.90
2011,05,24,17,29,13.90
2011,05,24,17,30,13.90
2011,05,24,17,31,13.90
2011,05,24,17,32,13.90
2011,05,24,17,33,13.90
2011,05,24,17,34,13.90
2011,05,24,17,35,13.90
2011,05,24,17,36,13.90
2011,05,24,17,37,13.90
2011,05,24,17,38,13.80
2011,05,24,17,39,13.80
2011,05,24,17,40,13.80